COSMOS 2251 DEB, 34955

Orbit data source: Space-Track

COSMOS 2251 DEB, 34955 is space debris in LEO originally from a launch on Wed, 16 Jun 1993 UTC launched from the Plesetsk Missile And Space Complex (PKMTR). The debris from Iridium 33, an American commercial communications satellite, has been tracked extensively since its accidental collision with the defunct Russian satellite Cosmos 2251 in 2009. This event, occurring at high speed in low Earth orbit (LEO), generated thousands of pieces of space debris, significantly increasing the risk of further collisions. The Iridium 33 debris cloud has impacted space traffic management and orbital debris mitigation strategies, making it a subject of ongoing study in space situational awareness.

Loading next visibility...
Identifier
34955, 1993-036AEJ
Orbit
LEO
Country
Flag of CISCIS
Related business
Manufacturer
Unknown
Mission
Spacecraft
Bus & Motor
Unknown
Mass
Unknown
Launch date (UTC)
1993-06-16 (33 years ago)
Launch vehicle
Unknown
Launch site
Plesetsk Missile And Space Complex (PKMTR)
Object type
Payload
Rocket body
Debris
Shape & HBR
Unknown shape, 0.1 m
Radar Cross Section
Small (<0.1 m²)

Expand to show TLE details & history
Last TLE update: 2 days ago

TLE from 2 days ago
0 COSMOS 2251 DEB
1 34955U 93036AEJ 26122.81383554  .00007111  00000-0  49578-3 0  9993
2 34955  74.0337 318.8232 0071697 351.4817   8.5147 15.03478643921523
Epoch: 2026-05-02T19:31Z
TLE epoch observation values (Epoch: 2026-05-02T19:31:55.390Z)
Latitude
-0.0001°
Longitude
165.11603°
Altitude
509.702 km
Speed
7.636 km/s
True Right ascension
21h 15m 17s
True Declination
0° 00' 00"
Sunlit
Object was in daylight at epoch
Visualization orbit readout
Latitude
Unknown
Longitude
Unknown
Altitude
Unknown
Speed
Unknown
Apparent Right ascension
Unknown
Apparent Declination
Unknown
Sunlit
N/A
Visualization observer readout
Local Sidereal Time
19:52:52
Azimuth
Unknown
Elevation
Unknown
Doppler factor
Unknown
Orbital elements
Apogee altitude
603.429 km
Perigee altitude
504.03 km
Semi-major axis
6,931.867 km
Eccentricity
0.00717
Inclination
74.0337°
RAAN
318.8232°
Arg. of periapsis
351.4817°
True anomaly
8.63743°
Mean anomaly
8.5147°
Eccentric anomaly
8.57596°
Mean motion
3.76069 °/min
Orbital period
95.73 mins
BSTAR
0.00049578
Loading maneuver chart data...
Computing Atmospheric mass density...

Documentation

Showing up to 5 results
|